Погода в Скуоли

Швейцария     46°47′50″N   10°17′56″E
темп.,
°C
ветер,
м/с
пор.,
м/с
влажн.,
%
обл.,
%
осадки,
мм/ч
давл.,
гПа
погр.,
м
17 августа, ср
ср1723:00+9ю22895 0.3 101620
02:00+8ю229462 0.3 101716
05:00+7ю229711 0.0 101716
08:00+9ю228863 0.0 1017155
11:00+14ююв336224 0.0 10151042
14:00+17ююз4545100 0.1 10142062
17:00+16ю454828 0.0 10141533
20:00+12ю336128 0.0 101535
18 августа, чт
чт1823:00+9ю3385100 0.0 101732
02:00+8ююв328879 0.0 101628
05:00+9ююв22845 0.1 101545
08:00+10ююв2380100 0.1 1016155
11:00+13ююв336691 0.3 1014744
14:00+15ю235755 0.6 10131082
17:00+14ююв3363100 1.7 1012983
20:00+11в118443 4.4 101211
19 августа, пт
пт1923:00+10всв0085100 3.0 101317
02:00+8с2292100 3.6 101332
05:00+9с2397100 1.0 1011344
08:00+9с1297100 9.0 1011230
11:00+8сз2392100 7.7 1014311
14:00+7сз3389100 15.0 1016388
17:00+7ссз2388100 1.1 1018468
20:00+7ссз239097 1.3 1019176
20 августа, сб
сб2023:00+7ссз229248 0.2 102072
02:00+7ссз229194 0.3 102041
05:00+7сз2293100 0.4 102075
08:00+8ссз229369 0.6 1021160
11:00+11ссз23745 0.1 1020616
14:00+15ссз225377 0.2 10181607
17:00+13ссз336181 0.3 1018734
20:00+10ссз22825 0.6 102026
21 августа, вс
вс2123:00+7ссз22930 0.0 102216
02:00+6ссз229610 0.0 102212
05:00+5с11979 0.0 102111
08:00+7с11905 0.0 102191
11:00+12ссв1164100 0.0 1019877
14:00+14с3254100 0.1 10171469
17:00+13с226697 1.6 1017621
20:00+10с2283100 3.9 101832